Regional Weather Roundup
Issued by NWS

Home | Current Version | Previous Version | Graphics & Text | Print | Product List | Glossary On
Versions: 1 2 3 4 5 6 7 8 9 10 11 12 13 14 15 16 17 18 19 20 21 22 23 24 25 26 27 28 29 30 31 32 33 34 35 36 37 38 39 40 41 42 43 44 45 46 47 48 49 50
000
ASUS43 KDMX 031707
RWRIA

WEATHER ROUNDUP FOR IOWA
NATIONAL WEATHER SERVICE DES MOINES IA
1200 PM CDT THU SEP 03 2015

NOTE: "FAIR" INDICATES FEW OR NO CLOUDS BELOW 12,000 FEET WITH NO
SIGNIFICANT WEATHER AND/OR OBSTRUCTIONS TO VISIBILITY.

* - THESE STATIONS ARE NOT NWS STATIONS...THUS NOT UNDER NWS
QUALITY CONTROL.  THEY ALSO DO NOT REPORT WEATHER SUCH
AS PRECIPITATION OR FOG.

IAZ001>003-012>014-020>022-031>034-043>046-031800-
   NORTHWEST IOWA

CITY           SKY/WX    TMP DP  RH WIND       PRES   REMARKS
CARROLL *      SUNNY     82  72  69 S15       29.89F HX  87
CHEROKEE *     SUNNY     82  72  69 S9        29.87S HX  87
DENISON *      SUNNY     82  72  69 S13       29.86F HX  87
LE MARS *      SUNNY     82  72  69 S8G14     29.86S HX  87
ORANGE CITY *  SUNNY     81  72  74 S7        29.86F HX  84
SHELDON *      SUNNY     82  73  74 S7        29.86S HX  88
SIOUX CITY     SUNNY     83  70  64 SE8       29.84S HX  87
SPENCER        SUNNY     83  71  67 SE9       29.89S HX  87
STORM LAKE *   SUNNY     81  72  74 S10       29.89F HX  84
$$

IAZ055>058-069>071-079>083-090>094-031800-
   SOUTHWEST IOWA

CITY           SKY/WX    TMP DP  RH WIND       PRES   REMARKS
ATLANTIC *     SUNNY     84  72  65 S10       29.90S HX  89
AUDUBON *      SUNNY     84  72  65 S9G16     29.91F HX  89
CLARINDA *     SUNNY     84  72  65 S12       29.92S HX  89
COUNCIL BLFS * SUNNY     84  70  61 S14       29.88F HX  88
CRESTON *      SUNNY     82  72  69 S13G18    29.95S HX  87
LAMONI         MOSUNNY   83  71  67 S13       29.95F HX  87
RED OAK *      SUNNY     86  72  62 S12       29.90S HX  92
SHENANDOAH *   SUNNY     88  70  55 S12G18    29.89S HX  92
$$

IAZ047>049-059>061-072>074-084-031800-
   CENTRAL IOWA

CITY           SKY/WX    TMP DP  RH WIND       PRES   REMARKS
AMES           SUNNY     85  70  60 SW12      29.91F HX  89
ANKENY *       SUNNY     84  72  65 S9        29.90F HX  89
CHARITON *     SUNNY     84  72  65 SW10G17   29.94S HX  89
DES MOINES     MOSUNNY   84  70  62 S10       29.91F HX  88
GRINNELL*      SUNNY     82  70  65 S8        29.94S HX  86
KNOXVILLE *    SUNNY     81  72  74 S13       29.92F HX  84
MARSHALLTOWN   SUNNY     86  70  58 SW13      29.91F HX  90
PELLA *        MOSUNNY   84  73  70 SW6       29.94S HX  91
PERRY *          N/A     84  72  65 S7        29.91F HX  89
$$

IAZ004>006-015-016-023>025-035-036-031800-
   NORTH CENTRAL IOWA

CITY           SKY/WX    TMP DP  RH WIND       PRES   REMARKS
ALGONA *       SUNNY     82  73  74 S9        29.91S HX  88
CLARION *      SUNNY     82  73  74 SW9       29.91S HX  88
ESTHERVILLE    SUNNY     81  73  76 S7        29.90R HX  86
FORT DODGE *   SUNNY     84  72  65 S10       29.91F HX  89
MASON CITY       N/A     84  74  71 SE6       29.93S HX  91
FOREST CITY *  SUNNY     82  70  65 S6        29.92S HX  86
IOWA FALLS *     N/A     84  72  65 S9        29.93F HX  89
$$

IAZ007>011-017>019-026>030-037>042-050>054-066-031800-
   NORTHEAST IOWA

CITY           SKY/WX    TMP DP  RH WIND       PRES   REMARKS
CEDAR RAPIDS   SUNNY     84  75  74 SW8       29.93F HX  92
CHARLES CITY * SUNNY     82  75  78 CALM      29.93F HX  89
CLINTON *      SUNNY     84  73  70 SW9       29.97S HX  91
DECORAH *      SUNNY     82  72  69 VRB5      29.93S HX  87
DUBUQUE        SUNNY     84  72  67 SW8       29.96S HX  89
MONTICELLO *   SUNNY     86  73  66 SW7       29.94S HX  93
OELWEIN *      SUNNY     84  73  70 S3        29.94F HX  91
WATERLOO       SUNNY     85  72  65 S12       29.91F HX  91
$$

IAZ064-065-067-068-078-031800-
   EAST CENTRAL IOWA

CITY           SKY/WX    TMP DP  RH WIND       PRES   REMARKS
DAVENPORT      SUNNY     86  73  65 SW9       29.96S HX  93
IOWA CITY      SUNNY     85  72  65 SW9       29.95F HX  91
MT. PLEASANT * SUNNY     88  64  45 SW10      29.96F HX  89
MUSCATINE *    SUNNY     90  70  51 W15       29.94F HX  95
QUAD CITIES    SUNNY     88  70  55 W12       29.94F HX  93
$$

IAZ062-063-075>077-085>089-095>099-031800-
   SOUTHEAST IOWA

CITY           SKY/WX    TMP DP  RH WIND       PRES   REMARKS
BURLINGTON     SUNNY     88  71  57 SW13      29.96F HX  94
FAIRFIELD *    SUNNY     86  70  58 SW8G16    29.95F HX  90
FORT MADISON * SUNNY     88  72  58 S9        29.97F HX  94
KEOKUK *       SUNNY     88  72  58 SW10      29.96F HX  94
OSKALOOSA *      N/A     84  70  61 SW12      29.96S HX  88
CENTERVILLE *  SUNNY     86  72  62 SW12      29.97S HX  92
OTTUMWA        PTSUNNY   83  74  74 S10       29.94F HX  89
WASHINGTON *     N/A    N/A N/A N/A MISG        N/A
$$

ABBREVIATIONS USED IN REMARKS
   TC - TEMPERATURES IN CELSIUS
  WCI - WIND CHILL INDEX
   HX - HEAT INDEX
  VSB - VISIBILITY
$$



USA.gov is the U.S. government's official web portal to all federal, state and local government web resources and services.